レモン彗星

C/2020 F7 ( Lemmon )

English version
Home page
Updated on September 18, 2021

---------------------------------------------------------------------

・ プロフィール

発見日 2020年3月22日
発見光度 20.2等
発見者 Mt. Lemmon Survey

・ 写真集

・ 軌道要素

Epoch 2021 Nov. 2.0 TT = JDT 2459520.5
T 2021 Nov. 14.00460 TT                                 Rudenko
q   5.3321153            (2000.0)            P               Q
z  +0.0014393      Peri.  227.96947     -0.49516907     +0.61291113
 +/-0.0000009      Node   321.88672     +0.71087333     -0.12162039
e   0.9923254      Incl.   93.95343     -0.49946641     -0.78073583
From 395 observations 2020 Jan. 4-2021 Apr. 29, mean residual 0".5.

・ 光度変化

        m1 = -5.0 + 5 logΔ + 25.0 log r

---------------------------------------------------------------------

軌道要素はM.P.E.C. 2021-J28に掲載されたものです。
光度グラフはComet for Windowsで作成したものです。

---------------------------------------------------------------------

Copyright(C) Seiichi Yoshida (comet@aerith.net). All rights reserved.